Zurück zum Katalog

STARLINK-37731

AktivKommunikationSSO
NORAD 69304·PAYLOAD·🇺🇸 United States

Gestartet May 30, 2026 von Vandenberg Space Force Base

Loading…

Nächste Überflüge (nächste 24 Stunden)

TLE

AktuellSource: CelesTrak SupGP

Epoche: Sep 14, 2026, 16:14 UTC

1 69304C 26119J   26257.67687500 -.00054706  00000+0 -16982-2 0  2570
2 69304  97.2825 282.4787 0001261 105.8242 120.8042 15.33466497    13

Verfolge STARLINK-37731 in Echtzeit mit AllMySat

Download on the App Store